• In Hungary
  • List of Countries
  • For 7 days
  • Water Temperature
  • Satellite Maps
  • Weather Map
  • News
  • Weather Widgets
  • user-avatar
    Login

    Hourly Weather Soignies

    Today, 22 October, Sunday

    Time Temperature Precipitation Wind Pressure Humidity
    00:00 +8°C° 0 mm 9 mps 750 mmHg 72%
    01:00 +8°C° 0.7 mm 9 mps 750 mmHg 75%
    02:00 +8°C° 0.7 mm 9 mps 749 mmHg 78%
    03:00 +8°C° 0.7 mm 10 mps 749 mmHg 81%
    04:00 +8°C° 0.7 mm 9 mps 750 mmHg 83%
    05:00 +9°C° 0.7 mm 8 mps 750 mmHg 84%
    06:00 +9°C° 0 mm 7 mps 750 mmHg 85%
    07:00 +9°C° 0.5 mm 7 mps 751 mmHg 82%
    08:00 +10°C° 0.5 mm 7 mps 751 mmHg 80%
    09:00 +10°C° 0.5 mm 7 mps 751 mmHg 78%
    10:00 +11°C° 0.1 mm 7 mps 752 mmHg 74%
    11:00 +11°C° 0.1 mm 7 mps 752 mmHg 69%
    12:00 +12°C° 0.1 mm 7 mps 752 mmHg 65%
    13:00 +11°C° 0.2 mm 7 mps 752 mmHg 66%
    14:00 +11°C° 0.2 mm 6 mps 753 mmHg 67%
    15:00 +11°C° 0.2 mm 6 mps 753 mmHg 68%
    16:00 +10°C° 0 mm 5 mps 753 mmHg 70%
    17:00 +9°C° 0 mm 5 mps 753 mmHg 71%
    18:00 +10°C° 0 mm 4 mps 754 mmHg 73%
    19:00 +10°C° 0 mm 4 mps 754 mmHg 74%
    20:00 +8°C° 0 mm 4 mps 754 mmHg 74%
    21:00 +8°C° 0 mm 4 mps 755 mmHg 75%
    22:00 +8°C° 0 mm 4 mps 755 mmHg 77%
    23:00 +8°C° 0 mm 4 mps 755 mmHg 78%

    Tomorrow, 23 October, Monday

    Time Temperature Precipitation Wind Pressure Humidity
    00:00 +8°C° 0 mm 4 mps 756 mmHg 79%
    01:00 +8°C° 0 mm 4 mps 756 mmHg 81%
    02:00 +8°C° 0 mm 4 mps 756 mmHg 84%
    03:00 +7°C° 0 mm 4 mps 756 mmHg 86%
    04:00 +7°C° 0 mm 4 mps 756 mmHg 87%
    05:00 +7°C° 0 mm 4 mps 756 mmHg 88%
    06:00 +7°C° 0 mm 4 mps 757 mmHg 89%
    07:00 +8°C° 0 mm 4 mps 757 mmHg 87%
    08:00 +10°C° 0 mm 4 mps 757 mmHg 84%
    09:00 +10°C° 0 mm 5 mps 757 mmHg 81%
    10:00 +12°C° 0.4 mm 4 mps 757 mmHg 83%
    11:00 +12°C° 0.4 mm 4 mps 757 mmHg 85%
    12:00 +12°C° 0.4 mm 4 mps 757 mmHg 87%
    13:00 +12°C° 0.4 mm 4 mps 757 mmHg 89%
    14:00 +12°C° 0.4 mm 4 mps 757 mmHg 90%
    15:00 +12°C° 0.4 mm 4 mps 757 mmHg 92%
    16:00 +12°C° 0.4 mm 4 mps 758 mmHg 92%
    17:00 +12°C° 0.4 mm 4 mps 758 mmHg 93%
    18:00 +12°C° 0.4 mm 4 mps 758 mmHg 93%
    19:00 +12°C° 0.1 mm 4 mps 758 mmHg 93%
    20:00 +12°C° 0.1 mm 4 mps 758 mmHg 93%
    21:00 +12°C° 0.1 mm 4 mps 758 mmHg 93%
    22:00 +12°C° 0.1 mm 4 mps 758 mmHg 93%
    23:00 +12°C° 0.1 mm 4 mps 758 mmHg 94%

    Day after tomorrow, 24 October, Tuesday

    Time Temperature Precipitation Wind Pressure Humidity
    00:00 +12°C° 0.1 mm 4 mps 758 mmHg 94%
    01:00 +13°C° 0.1 mm 4 mps 758 mmHg 95%
    02:00 +13°C° 0.1 mm 4 mps 758 mmHg 95%
    03:00 +13°C° 0.1 mm 4 mps 758 mmHg 96%
    04:00 +13°C° 0.4 mm 4 mps 758 mmHg 96%
    05:00 +13°C° 0.4 mm 4 mps 758 mmHg 95%
    06:00 +13°C° 0.4 mm 4 mps 758 mmHg 95%
    07:00 +14°C° 1.1 mm 5 mps 758 mmHg 95%
    08:00 +14°C° 1.1 mm 5 mps 758 mmHg 95%
    09:00 +14°C° 1.1 mm 5 mps 758 mmHg 94%
    10:00 +15°C° 0.8 mm 5 mps 759 mmHg 92%
    11:00 +15°C° 0.8 mm 5 mps 759 mmHg 90%
    12:00 +16°C° 0.8 mm 5 mps 759 mmHg 88%
    13:00 +16°C° 0 mm 5 mps 759 mmHg 87%
    14:00 +16°C° 0 mm 5 mps 759 mmHg 86%
    15:00 +17°C° 0 mm 5 mps 759 mmHg 85%
    16:00 +16°C° 0 mm 5 mps 759 mmHg 87%
    17:00 +15°C° 0 mm 4 mps 759 mmHg 89%
    18:00 +15°C° 0 mm 4 mps 759 mmHg 92%
    19:00 +14°C° 0 mm 4 mps 759 mmHg 92%
    20:00 +14°C° 0 mm 4 mps 759 mmHg 93%
    21:00 +14°C° 0 mm 4 mps 759 mmHg 94%
    22:00 +13°C° 0 mm 4 mps 759 mmHg 94%
    23:00 +13°C° 0 mm 4 mps 759 mmHg 94%

    25 October, Wednesday

    Time Temperature Precipitation Wind Pressure Humidity
    00:00 +13°C° 0 mm 4 mps 759 mmHg 94%
    01:00 +13°C° 0 mm 4 mps 759 mmHg 94%
    02:00 +12°C° 0 mm 4 mps 759 mmHg 94%
    03:00 +12°C° 0 mm 4 mps 759 mmHg 94%
    04:00 +12°C° 0 mm 4 mps 759 mmHg 94%
    05:00 +11°C° 0 mm 4 mps 759 mmHg 94%
    06:00 +11°C° 0 mm 3 mps 759 mmHg 94%
    07:00 +12°C° 0 mm 4 mps 759 mmHg 91%
    08:00 +13°C° 0 mm 4 mps 759 mmHg 87%
    09:00 +14°C° 0 mm 4 mps 759 mmHg 84%
    10:00 +15°C° 0 mm 5 mps 759 mmHg 80%
    11:00 +16°C° 0 mm 5 mps 759 mmHg 76%
    12:00 +17°C° 0 mm 5 mps 759 mmHg 71%
    13:00 +19°C° 0 mm 4 mps 759 mmHg 72%
    14:00 +19°C° 0 mm 4 mps 759 mmHg 73%
    15:00 +19°C° 0 mm 3 mps 759 mmHg 74%
    16:00 +17°C° 0 mm 3 mps 759 mmHg 79%
    17:00 +16°C° 0 mm 2 mps 759 mmHg 84%
    18:00 +14°C° 0 mm 2 mps 759 mmHg 90%
    19:00 +14°C° 0 mm 2 mps 759 mmHg 90%
    20:00 +14°C° 0 mm 2 mps 760 mmHg 91%
    21:00 +13°C° 0 mm 2 mps 760 mmHg 92%
    22:00 +13°C° 0 mm 2 mps 760 mmHg 92%
    23:00 +13°C° 0 mm 2 mps 760 mmHg 92%

    26 October, Thursday

    Time Temperature Precipitation Wind Pressure Humidity
    00:00 +13°C° 0 mm 2 mps 760 mmHg 92%
    01:00 +12°C° 0 mm 2 mps 760 mmHg 93%
    02:00 +12°C° 0 mm 2 mps 760 mmHg 93%
    03:00 +12°C° 0 mm 2 mps 760 mmHg 93%
    04:00 +12°C° 0 mm 2 mps 760 mmHg 93%
    05:00 +12°C° 0 mm 2 mps 760 mmHg 93%
    06:00 +11°C° 0 mm 3 mps 760 mmHg 93%
    07:00 +12°C° 0 mm 3 mps 760 mmHg 90%
    08:00 +13°C° 0 mm 3 mps 760 mmHg 87%
    09:00 +14°C° 0 mm 3 mps 760 mmHg 83%
    10:00 +17°C° 0 mm 3 mps 760 mmHg 79%
    11:00 +18°C° 0 mm 3 mps 760 mmHg 75%
    12:00 +19°C° 0 mm 3 mps 760 mmHg 71%
    13:00 +19°C° 0 mm 3 mps 760 mmHg 73%
    14:00 +19°C° 0 mm 2 mps 760 mmHg 74%
    15:00 +19°C° 0 mm 2 mps 760 mmHg 75%
    16:00 +17°C° 0 mm 2 mps 760 mmHg 80%
    17:00 +16°C° 0 mm 2 mps 760 mmHg 85%
    18:00 +14°C° 0 mm 2 mps 760 mmHg 90%
    19:00 +14°C° 0 mm 2 mps 760 mmHg 91%
    20:00 +14°C° 0 mm 2 mps 760 mmHg 92%
    21:00 +13°C° 0 mm 2 mps 760 mmHg 93%
    22:00 +13°C° 0 mm 2 mps 760 mmHg 93%
    23:00 +13°C° 0 mm 2 mps 760 mmHg 94%

    27 October, Friday

    Time Temperature Precipitation Wind Pressure Humidity
    00:00 +11°C° 0 mm 3 mps 760 mmHg 94%
    01:00 +11°C° 0 mm 3 mps 759 mmHg 94%
    02:00 +11°C° 0 mm 3 mps 759 mmHg 95%
    03:00 +10°C° 0 mm 3 mps 758 mmHg 95%
    04:00 +10°C° 0 mm 3 mps 758 mmHg 95%
    05:00 +10°C° 0 mm 3 mps 758 mmHg 95%
    06:00 +10°C° 0 mm 3 mps 758 mmHg 95%
    07:00 +11°C° 0 mm 3 mps 758 mmHg 92%
    08:00 +12°C° 0 mm 3 mps 758 mmHg 89%
    09:00 +13°C° 0 mm 4 mps 758 mmHg 86%
    10:00 +13°C° 0.1 mm 4 mps 758 mmHg 86%
    11:00 +14°C° 0.1 mm 4 mps 758 mmHg 86%
    12:00 +14°C° 0.1 mm 4 mps 758 mmHg 86%
    13:00 +13°C° 0.2 mm 4 mps 758 mmHg 85%
    14:00 +13°C° 0.2 mm 4 mps 759 mmHg 85%
    15:00 +12°C° 0.2 mm 4 mps 759 mmHg 84%
    16:00 +11°C° 0 mm 4 mps 759 mmHg 86%
    17:00 +10°C° 0 mm 3 mps 760 mmHg 88%
    18:00 +10°C° 0 mm 3 mps 761 mmHg 90%
    19:00 +9°C° 0 mm 3 mps 761 mmHg 90%
    20:00 +9°C° 0 mm 2 mps 761 mmHg 91%
    21:00 +8°C° 0 mm 2 mps 761 mmHg 91%
    22:00 +8°C° 0 mm 2 mps 761 mmHg 91%
    23:00 +8°C° 0 mm 2 mps 761 mmHg 92%
    Show more